Showing default

QPS-SAR-8 AMATERU-IV, 60542

Orbit data source: Space-Track

QPS-SAR-8 AMATERU-IV, 60542 is a payload satellite owned by QPS Labs (JP) in SSO that was launched on Fri, 16 Aug 2024 UTC via an FALCON 9 launch vehicle from the Air Force Western Test Range (AFWTR). Payload-class satellites include a variety of spacecraft equipped with specific instruments for various scientific and technological missions. These include communications satellites like Starlink; space stations such as the ISS; scientific satellites like the Hubble; Earth observation satellites from companies like Planet Labs, Umbra, and HawkEye 360; GPS; miniature CubeSats for education and research; and military/defense satellites.

Loading next visibility...
Identifier
60542, 2024-149CC
Orbit
SSO
Country
Flag of JPJP / JPN
Related business
Manufacturer
QPS Labs
Mission
Operational Commercial Radar Imaging
Bus & Motor
QSAT, Unknown motor
Mass
~120 kg wet, ~100 kg dry
Launch date (UTC)
2024-08-16 (2 years ago)
Launch vehicle
FALCON 9
Launch site
Air Force Western Test Range (AFWTR)
Object type
Payload
Rocket body
Debris
Shape & HBR
Hex Cyl + 2 Pan + 1 Dish, 1.8 m
Radar Cross Section
1.179 m², Large (>1 m²)

Expand to show TLE details & history
Last TLE update: 22 hours ago

TLE from 22 hours ago
0 QPS-SAR-8 AMATERU-IV
1 60542U 24149CC  26175.17869270  .00004779  00000-0  34850-3 0  9998
2 60542  97.6652 254.2694 0004252  93.3153 266.8559 15.04184980101321
Epoch: 2026-06-24T04:17Z
TLE epoch observation values (Epoch: 2026-06-24T04:17:19.049Z)
Latitude
-0.00004°
Longitude
-82.39959°
Altitude
557.233 km
Speed
7.583 km/s
True Right ascension
16h 57m 04s
True Declination
0° 00' 00"
Sunlit
Object was in full shadow at epoch
Visualization orbit readout
Latitude
Unknown
Longitude
Unknown
Altitude
Unknown
Speed
Unknown
Apparent Right ascension
Unknown
Apparent Declination
Unknown
Sunlit
N/A
Visualization observer readout
Local Sidereal Time
13:58:57
Azimuth
Unknown
Elevation
Unknown
Doppler factor
Unknown
Orbital elements
Apogee altitude
553.953 km
Perigee altitude
548.06 km
Semi-major axis
6,929.144 km
Eccentricity
0.00043
Inclination
97.6652°
RAAN
254.2694°
Arg. of periapsis
93.3153°
True anomaly
266.80725°
Mean anomaly
266.8559°
Eccentric anomaly
266.83158°
Mean motion
3.76291 °/min
Orbital period
95.67 mins
BSTAR
0.0003485
Loading maneuver chart data...
Computing Atmospheric mass density...
Loading historical data...
Loading historical data...
Loading historical data...
Loading historical data...
Loading historical data...
Loading historical data...
Loading historical data...

Documentation

Showing up to 5 results
|